GW0319 Weather Reports


Display with metric or nautical units.
time (UTC)temp
F
wind
direction
speed
MPH
gust
MPH
rain 1hr
in
rain 24hr
in
rain mn
in
humidity
%
barometer
mb
20260505073417 51 223 1.0 2.0 0.02 0.20 0.02 92 1015.1
20260505072916 51 188 1.0 2.0 0.01 0.19 0.01 92 1015.1
20260505072420 51 116 2.0 2.0 0.01 0.19 0.01 92 1015.4
20260505071919 51 200 1.0 2.0 0.00 0.19 0.00 92 1015.4
20260505071418 51 222 1.0 2.0 0.01 0.19 0.00 92 1015.1
20260505070917 51 0 0.0 1.0 0.01 0.19 0.00 92 1015.3
20260505070420 51 0 0.0 0.0 0.01 0.19 0.00 92 1015.4
20260505065919 51 156 1.0 2.0 0.01 0.19 0.19 92 1015.1
20260505065418 51 82 0.0 1.0 0.02 0.19 0.19 92 1015.2
20260505064916 51 0 0.0 1.0 0.02 0.19 0.19 92 1015.1
20260505064420 51 0 0.0 2.0 0.02 0.19 0.19 92 1014.9
20260505063918 51 96 1.0 2.0 0.02 0.19 0.19 92 1014.9
20260505063417 51 131 1.0 3.0 0.02 0.19 0.19 92 1014.7
20260505062916 51 0 0.0 2.0 0.03 0.19 0.19 92 1015.0
20260505062420 51 218 1.0 2.0 0.03 0.19 0.19 92 1015.2
20260505061919 50 220 1.0 2.0 0.03 0.19 0.19 92 1015.0
20260505061417 50 133 2.0 2.0 0.02 0.18 0.18 91 1015.0
20260505060917 50 0 0.0 1.0 0.03 0.18 0.18 91 1015.2
20260505060420 50 0 0.0 1.0 0.03 0.18 0.18 91 1015.3
20260505055939 50 0 0.0 0.0 0.04 0.18 0.18 91 1015.0
20260505055417 50 0 0.0 0.0 0.04 0.17 0.17 91 1015.0
20260505054916 50 0 0.0 0.0 0.04 0.17 0.17 91 1015.3
20260505054420 50 0 0.0 2.0 0.05 0.17 0.17 91 1015.0
20260505053919 50 224 1.0 2.0 0.06 0.17 0.17 91 1015.2
20260505053418 50 0 0.0 1.0 0.07 0.17 0.17 90 1015.0
20260505052916 50 0 0.0 1.0 0.07 0.16 0.16 90 1015.0
20260505052415 50 0 0.0 0.0 0.07 0.16 0.16 90 1015.3
20260505051919 50 0 0.0 1.0 0.08 0.16 0.16 90 1015.1
20260505051418 50 0 0.0 0.0 0.09 0.16 0.16 90 1015.2
20260505050917 50 227 0.0 2.0 0.09 0.15 0.15 90 1015.0
20260505050435 50 0 0.0 0.0 0.09 0.15 0.15 90 1015.2
20260505041420 51 0 0.0 0.0 0.04 0.06 0.06 89 1015.8
20260505040939 51 0 0.0 0.0 0.03 0.06 0.06 89 1016.0
20260505040418 51 0 0.0 1.0 0.03 0.06 0.06 88 1015.9
20260505035916 51 0 0.0 1.0 0.02 0.05 0.05 88 1015.5
20260505035420 51 120 1.0 2.0 0.03 0.05 0.05 88 1014.9
20260505034919 51 109 1.0 2.0 0.03 0.05 0.05 88 1014.8
20260505034418 51 108 1.0 2.0 0.03 0.05 0.05 88 1014.5
20260505033916 51 198 0.0 1.0 0.03 0.05 0.05 88 1014.5
20260505033501 51 92 0.0 2.0 0.03 0.05 0.05 87 1014.2
20260505032919 51 0 0.0 1.0 0.02 0.04 0.04 87 1014.3
20260505032438 51 179 1.0 2.0 0.02 0.04 0.04 87 1014.2
20260505031917 52 227 0.0 1.0 0.02 0.04 0.04 87 1014.2
20260505031415 52 124 1.0 2.0 0.01 0.03 0.03 87 1014.2
20260505030919 52 127 2.0 2.0 0.01 0.03 0.03 87 1014.2
20260505030418 52 132 2.0 2.0 0.01 0.03 0.03 86 1014.4
20260505025917 52 0 0.0 1.0 0.01 0.03 0.03 86 1014.5
20260505025435 52 160 1.0 2.0 0.00 0.02 0.02 86 1014.5
20260505024919 53 201 1.0 2.0 0.00 0.02 0.02 86 1014.6
20260505024438 53 205 0.0 1.0 0.00 0.02 0.02 86 1014.6
20260505023916 53 213 1.0 2.0 0.01 0.02 0.02 86 1014.5
20260505023435 53 0 0.0 1.0 0.01 0.02 0.02 86 1014.6
20260505022919 53 0 0.0 1.0 0.01 0.02 0.02 86 1014.6
20260505022418 53 176 1.0 2.0 0.01 0.02 0.02 86 1014.3
20260505021917 53 200 1.0 2.0 0.01 0.02 0.02 86 1014.3
20260505021416 54 155 2.0 3.0 0.01 0.02 0.02 86 1014.4
20260505020919 54 178 1.0 2.0 0.01 0.02 0.02 85 1014.4
20260505020418 54 182 1.0 3.0 0.01 0.02 0.02 86 1014.4
20260505015917 54 169 2.0 2.0 0.01 0.02 0.02 85 1014.6
20260505015415 54 191 2.0 2.0 0.01 0.02 0.02 85 1014.5
20260505014920 55 147 1.0 3.0 0.01 0.02 0.02 84 1014.6
20260505014418 55 166 2.0 2.0 0.02 0.02 0.02 84 1014.7
20260505013918 55 187 2.0 3.0 0.01 0.01 0.01 84 1014.7
20260505013436 55 179 2.0 2.0 0.01 0.01 0.01 84 1015.0
20260505012941 55 161 1.0 2.0 0.01 0.01 0.01 84 1014.9
20260505012418 55 193 1.0 2.0 0.01 0.01 0.01 84 1014.8
20260505011917 55 182 2.0 2.0 0.01 0.01 0.01 84 1015.0
20260505011418 55 182 2.0 2.0 0.01 0.01 0.01 84 1014.9
20260505010920 55 190 2.0 3.0 0.01 0.01 0.01 83 1014.9
20260505010418 56 216 3.0 3.0 0.01 0.01 0.01 83 1015.0
20260505005917 56 197 2.0 2.0 0.01 0.01 0.01 82 1014.9
20260505005437 56 195 2.0 3.0 0.01 0.01 0.01 81 1015.1
20260505004920 56 190 2.0 2.0 0.01 0.01 0.01 81 1015.2
20260505004418 56 201 2.0 3.0 0.00 0.00 0.00 81 1014.9
20260505003938 56 194 2.0 3.0 0.00 0.00 0.00 81 1015.0
20260505003416 57 186 2.0 3.0 0.00 0.00 0.00 80 1015.1
20260505002920 57 187 2.0 3.0 0.00 0.00 0.00 80 1015.2
20260505002419 57 206 2.0 3.0 0.00 0.00 0.00 80 1015.2
20260505001917 57 172 2.0 3.0 0.00 0.00 0.00 79 1015.0
20260505001415 57 182 1.0 2.0 0.00 0.00 0.00 79 1014.9
20260505000919 58 199 2.0 2.0 0.00 0.00 0.00 78 1014.8
20260505000420 58 202 2.0 2.0 0.00 0.00 0.00 77 1014.8
20260504235917 58 196 2.0 2.0 0.00 0.00 0.00 76 1014.8
20260504235416 58 213 2.0 3.0 0.00 0.00 0.00 76 1014.6
20260504234939 58 196 1.0 2.0 0.00 0.00 0.00 75 1014.7
20260504234418 58 202 0.0 2.0 0.00 0.00 0.00 74 1015.0
20260504233917 58 197 2.0 2.0 0.00 0.00 0.00 75 1014.8
20260504233416 58 158 1.0 2.0 0.00 0.00 0.00 74 1014.8
20260504232940 59 46 0.0 2.0 0.00 0.00 0.00 74 1014.8
20260504232418 59 177 1.0 2.0 0.00 0.00 0.00 73 1014.5
20260504231917 59 169 2.0 4.0 0.00 0.00 0.00 73 1014.4
20260504231416 59 213 1.0 2.0 0.00 0.00 0.00 73 1014.5
20260504230919 60 217 1.0 2.0 0.00 0.00 0.00 73 1014.6
20260504230438 60 101 0.0 2.0 0.00 0.00 0.00 73 1014.8
20260504225917 60 174 1.0 2.0 0.00 0.00 0.00 72 1014.7
20260504225416 60 180 1.0 2.0 0.00 0.00 0.00 72 1014.9
20260504224920 60 181 1.0 2.0 0.00 0.00 0.00 71 1014.8
20260504224418 61 178 1.0 2.0 0.00 0.00 0.00 70 1014.9
20260504223917 61 241 0.0 1.0 0.00 0.00 0.00 69 1014.8
20260504223416 61 222 1.0 4.0 0.00 0.00 0.00 68 1014.9
20260504222919 61 164 1.0 3.0 0.00 0.00 0.00 69 1014.9
20260504222418 61 192 1.0 2.0 0.00 0.00 0.00 68 1014.9
20260504221917 61 197 1.0 1.0 0.00 0.00 0.00 68 1015.1
20260504221436 61 219 0.0 1.0 0.00 0.00 0.00 67 1014.9
20260504220919 61 228 1.0 2.0 0.00 0.00 0.00 67 1015.0
20260504220418 61 193 0.0 1.0 0.00 0.00 0.00 68 1015.0
20260504215958 61 192 1.0 2.0 0.00 0.00 0.00 67 1014.9
20260504215417 61 200 1.0 2.0 0.00 0.00 0.00 68 1015.0
20260504214919 61 191 1.0 2.0 0.00 0.00 0.00 69 1014.8
20260504214418 61 205 1.0 2.0 0.00 0.00 0.00 71 1014.8
20260504213917 61 187 2.0 2.0 0.00 0.00 0.00 69 1014.8
20260504213416 62 0 0.0 1.0 0.00 0.00 0.00 71 1014.9
20260504212919 61 214 0.0 2.0 0.00 0.00 0.00 70 1015.1
20260504212418 61 215 1.0 2.0 0.00 0.00 0.00 70 1014.9
20260504211917 61 277 2.0 2.0 0.00 0.00 0.00 70 1014.9
20260504211416 61 220 2.0 3.0 0.00 0.00 0.00 71 1015.0
20260504210919 61 209 2.0 3.0 0.00 0.00 0.00 70 1015.1
20260504210418 61 226 1.0 3.0 0.00 0.00 0.00 71 1014.9
20260504205937 61 185 2.0 2.0 0.00 0.00 0.00 72 1015.1
20260504205436 61 208 1.0 2.0 0.00 0.00 0.00 72 1015.0
20260504204919 61 185 1.0 2.0 0.00 0.00 0.00 71 1015.1
20260504204419 61 151 2.0 3.0 0.00 0.00 0.00 71 1014.9
20260504203917 61 264 0.0 4.0 0.00 0.00 0.00 71 1014.9
20260504203416 61 122 4.0 5.0 0.00 0.00 0.00 71 1015.0
20260504202919 61 128 4.0 5.0 0.00 0.00 0.00 71 1014.9
20260504202418 61 241 2.0 3.0 0.00 0.00 0.00 72 1014.8
20260504201917 60 207 2.0 2.0 0.00 0.00 0.00 71 1015.0
20260504201436 60 133 2.0 3.0 0.00 0.00 0.00 70 1015.1
20260504200920 60 148 3.0 4.0 0.00 0.00 0.00 69 1015.3
20260504200419 60 204 2.0 2.0 0.00 0.00 0.00 68 1015.3
20260504195917 60 147 2.0 3.0 0.00 0.00 0.00 69 1015.2
20260504195416 60 205 2.0 3.0 0.00 0.00 0.00 69 1015.2
20260504194920 60 184 2.0 3.0 0.00 0.00 0.00 69 1015.0
20260504194419 60 210 2.0 2.0 0.00 0.00 0.00 70 1015.2
20260504193917 60 195 0.0 1.0 0.00 0.00 0.00 70 1015.2
20260504193436 60 202 2.0 4.0 0.00 0.00 0.00 68 1015.0
20260504192920 61 217 2.0 5.0 0.00 0.00 0.00 68 1015.0
20260504192419 61 204 3.0 3.0 0.00 0.00 0.00 68 1015.1
20260504191917 61 156 1.0 3.0 0.00 0.00 0.00 67 1015.2
20260504191416 61 191 1.0 2.0 0.00 0.00 0.00 66 1015.1
20260504190915 62 184 2.0 3.0 0.00 0.00 0.00 66 1015.2
20260504190419 62 173 2.0 2.0 0.00 0.00 0.00 65 1015.2
20260504185938 62 201 1.0 3.0 0.00 0.00 0.00 64 1014.9
20260504185417 63 235 2.0 3.0 0.00 0.00 0.00 62 1014.9
20260504184920 63 162 1.0 3.0 0.00 0.00 0.00 65 1015.0
20260504184419 63 155 2.0 3.0 0.00 0.00 0.00 63 1015.0
20260504183938 63 181 1.0 2.0 0.00 0.00 0.00 63 1015.1
20260504183417 63 138 2.0 3.0 0.00 0.00 0.00 65 1015.0
20260504182916 62 194 1.0 2.0 0.00 0.00 0.00 67 1014.9
20260504182419 61 202 2.0 2.0 0.00 0.00 0.00 68 1015.0
20260504181918 61 78 1.0 3.0 0.00 0.00 0.00 66 1014.9
20260504181416 61 213 2.0 4.0 0.00 0.00 0.00 68 1015.1
20260504180915 61 184 1.0 2.0 0.00 0.00 0.00 69 1015.0
20260504180419 61 145 1.0 2.0 0.00 0.00 0.00 68 1015.1
20260504175938 61 193 2.0 3.0 0.00 0.00 0.00 68 1014.9
20260504175417 61 181 2.0 2.0 0.00 0.00 0.00 68 1014.8
20260504174936 61 171 2.0 3.0 0.00 0.00 0.00 67 1014.7
20260504174419 61 189 1.0 3.0 0.00 0.00 0.00 70 1014.5
20260504173918 61 170 2.0 3.0 0.00 0.00 0.00 70 1014.7
20260504173438 62 182 1.0 2.0 0.00 0.00 0.00 70 1014.6
20260504172936 62 36 2.0 3.0 0.00 0.00 0.00 71 1014.9
20260504172420 61 192 2.0 3.0 0.00 0.00 0.00 71 1014.7
20260504171918 61 157 1.0 3.0 0.00 0.00 0.00 72 1014.7
20260504171417 61 198 3.0 5.0 0.00 0.00 0.00 72 1014.5
20260504170915 60 191 2.0 4.0 0.00 0.00 0.00 73 1014.5
20260504170419 59 203 4.0 5.0 0.00 0.00 0.00 76 1014.5
20260504160420 54 257 2.0 3.0 0.00 0.00 0.00 89 1014.8
20260504150936 47 0 0.0 1.0 0.00 0.00 0.00 92 1014.6
20260504150420 47 178 1.0 2.0 0.00 0.00 0.00 92 1014.6
20260504140917 44 0 0.0 0.0 0.00 0.00 0.00 90 1014.7
20260504140420 44 0 0.0 0.0 0.00 0.00 0.00 90 1014.6
20260504130416 44 236 0.0 2.0 0.00 0.00 0.00 90 1014.1
20260504110416 45 212 1.0 2.0 0.00 0.00 0.00 89 1013.9
20260504100417 46 0 0.0 1.0 0.00 0.00 0.00 89 1014.0
20260504081936 47 173 0.0 1.0 0.00 0.00 0.00 88 1014.3
20260504081416 47 142 0.0 1.0 0.00 0.00 0.00 88 1014.2
20260504080919 47 154 0.0 1.0 0.00 0.00 0.00 88 1014.3
20260504080418 47 156 0.0 1.0 0.00 0.00 0.00 88 1014.4